| time (UTC) | temp F | wind direction | speed knots | gust knots | rain 1hr in | rain 24hr in | rain mn in | humidity % | barometer mb |
| 20260504020021 | 48 | 173 | 0.0 | 0.0 | 0.00 | 0.00 | 0.00 | 77 | 1017.1 |
| 20260504014534 | 49 | 173 | 0.0 | 0.0 | 0.00 | 0.00 | 0.00 | 75 | 1017.0 |
| 20260504013027 | 50 | 173 | 0.0 | 0.0 | 0.00 | 0.00 | 0.00 | 73 | 1017.0 |
| 20260504011510 | 51 | 173 | 0.0 | 0.0 | 0.00 | 0.00 | 0.00 | 70 | 1017.0 |
| 20260504010016 | 53 | 152 | 0.0 | 0.0 | 0.00 | 0.00 | 0.00 | 66 | 1017.2 |
| 20260504004507 | 54 | 149 | 0.0 | 0.0 | 0.00 | 0.00 | 0.00 | 64 | 1016.9 |
| 20260504003004 | 56 | 150 | 0.0 | 0.0 | 0.00 | 0.00 | 0.00 | 58 | 1016.7 |
| 20260504001509 | 59 | 149 | 0.0 | 0.9 | 0.00 | 0.00 | 0.00 | 53 | 1016.6 |
| 20260504000011 | 62 | 261 | 0.0 | 2.6 | 0.00 | 0.00 | 0.00 | 49 | 1016.7 |
| 20260503234520 | 64 | 262 | 0.0 | 2.6 | 0.00 | 0.00 | 0.00 | 44 | 1016.8 |
| 20260503233021 | 66 | 136 | 0.0 | 3.5 | 0.00 | 0.00 | 0.00 | 44 | 1016.8 |
| 20260503231504 | 66 | 238 | 0.9 | 3.5 | 0.00 | 0.00 | 0.00 | 41 | 1017.0 |
| 20260503230012 | 66 | 204 | 0.9 | 6.1 | 0.00 | 0.00 | 0.00 | 41 | 1017.2 |
| 20260503224517 | 67 | 271 | 0.0 | 7.8 | 0.00 | 0.00 | 0.00 | 41 | 1017.2 |
| 20260503223020 | 66 | 226 | 1.7 | 5.2 | 0.00 | 0.00 | 0.00 | 40 | 1017.4 |
| 20260503221525 | 66 | 219 | 3.5 | 9.6 | 0.00 | 0.00 | 0.00 | 38 | 1017.5 |
| 20260503220007 | 66 | 250 | 1.7 | 7.8 | 0.00 | 0.00 | 0.00 | 37 | 1017.7 |
| 20260503214532 | 66 | 205 | 2.6 | 7.8 | 0.00 | 0.00 | 0.00 | 35 | 1017.7 |
| 20260503213016 | 67 | 271 | 1.7 | 7.0 | 0.00 | 0.00 | 0.00 | 35 | 1017.8 |
| 20260503211520 | 66 | 225 | 0.9 | 6.1 | 0.00 | 0.00 | 0.00 | 35 | 1018.1 |
| 20260503210023 | 66 | 262 | 2.6 | 6.1 | 0.00 | 0.00 | 0.00 | 36 | 1018.1 |
| 20260503204507 | 66 | 225 | 2.6 | 7.0 | 0.00 | 0.00 | 0.00 | 36 | 1018.4 |
| 20260503203012 | 66 | 230 | 2.6 | 7.8 | 0.00 | 0.00 | 0.00 | 38 | 1018.7 |
| 20260503201518 | 66 | 276 | 2.6 | 9.6 | 0.00 | 0.00 | 0.00 | 38 | 1018.9 |
| 20260503200032 | 66 | 240 | 1.7 | 6.1 | 0.00 | 0.00 | 0.00 | 36 | 1019.2 |
| 20260503194527 | 66 | 178 | 2.6 | 7.8 | 0.00 | 0.00 | 0.00 | 35 | 1019.5 |
| 20260503193013 | 66 | 223 | 0.9 | 7.0 | 0.00 | 0.00 | 0.00 | 34 | 1019.6 |
| 20260503191519 | 65 | 187 | 2.6 | 9.6 | 0.00 | 0.00 | 0.00 | 41 | 1019.7 |
| 20260503190021 | 65 | 228 | 1.7 | 7.8 | 0.00 | 0.00 | 0.00 | 40 | 1019.9 |
| 20260503184533 | 65 | 96 | 0.9 | 6.1 | 0.00 | 0.00 | 0.00 | 37 | 1020.1 |
| 20260503183028 | 65 | 238 | 2.6 | 7.0 | 0.00 | 0.00 | 0.00 | 37 | 1020.2 |